Regional Weather Roundup
Issued by NWS

Home | Current Version | Previous Version | Graphics & Text | Print | Product List | Glossary Off
Versions: 1 2 3 4 5 6 7 8 9 10 11 12 13 14 15 16 17 18 19 20 21 22 23 24 25 26 27 28 29 30 31 32 33 34 35 36 37 38 39 40 41 42 43 44 45 46 47 48 49 50

000
ASUS43 KMPX 281710
RWRMN
WEATHER ROUNDUP FOR MINNESOTA
NATIONAL WEATHER SERVICE TWIN CITIES/CHANHASSEN MN
1200 PM CDT TUE MAR 28 2017


NOTE: "FAIR" INDICATES FEW OR NO CLOUDS BELOW 12,000 FEET WITH NO
SIGNIFICANT WEATHER AND/OR OBSTRUCTIONS TO VISIBILITY. N/A MEANS
CURRENT SKY AND/OR WEATHER CONDITIONS ARE NOT AVAILABLE.

MNZ060>063-068>070-281800-
   Twin Cities Metro

CITY           SKY/WX    TMP DP  RH WIND       PRES   REMARKS
TWIN CITIES    MOSUNNY   57  36  45 NE7       30.16R
ST PAUL        SUNNY     56  39  53 CALM      30.16S
CRYSTAL        SUNNY     56  33  42 VRB5      30.15R
BLAINE         MOSUNNY   57  34  41 N5        30.15S
LAKEVILLE      SUNNY     54  39  58 CALM      30.15S
EDEN PRAIRIE   SUNNY     57  36  45 VRB3      30.15R
SOUTH ST PAUL  SUNNY     55  36  49 CALM      30.16R
LAKE ELMO      FAIR      54  41  62 CALM      30.17R
$$
MNZ001>005-007-008-013>017-022>024-027-028-281800-
   Northwest Minnesota

CITY           SKY/WX    TMP DP  RH WIND       PRES   REMARKS
BEMIDJI        SUNNY     51  28  41 NE6       30.16S
HALLOCK        SUNNY     41  36  81 N3        30.22R
ROSEAU         SUNNY     46  36  66 NE6       30.20F
WARROAD        SUNNY     37  30  75 NE8       30.22S
THIEF RVR FALL SUNNY     49  36  61 E8        30.19R
CROOKSTON      SUNNY     48  39  71 N5        30.20R
FOSSTON        SUNNY     52  39  62 N7        30.17R
DETROIT LAKES  SUNNY     52  32  46 CALM      30.17R
MOORHEAD       CLOUDY    37  36  93 N3        30.19R FOG
PARK RAPIDS    SUNNY     56  29  35 N5        30.14S
MAHNOMEN       FAIR      51  36  56 NE3       30.16R
$$
MNZ006-009>011-018-025>026-281800-
   North Central Minnesota

CITY           SKY/WX    TMP DP  RH WIND       PRES   REMARKS
BAUDETTE       SUNNY     49  33  54 N8        30.20R
FLAG ISLAND    SUNNY     36  27  69 N6        30.23R
INTL FALLS     SUNNY     49  30  48 NE8       30.19R
WASKISH        MOSUNNY   52  36  54 NW5       30.18R
BIG FORK       SUNNY     52  30  43 N5        30.16S
LONGVILLE      MOSUNNY   54  28  37 CALM      30.15S
GRAND RAPIDS   CLOUDY    52  30  43 W5        30.17R
CRANE LAKE     SUNNY     48  28  46 NW5       30.19R
ORR            SUNNY     52  25  35 CALM      30.14R
COOK           SUNNY     52  28  40 CALM      30.16R
WALKER         FAIR      50  32  49 CALM      30.15S
$$
MNZ012-019>021-037-281800-
   Northeast Minnesota

CITY           SKY/WX    TMP DP  RH WIND       PRES   REMARKS
DULUTH         MOSUNNY   54  31  41 CALM      30.15R
ELY            SUNNY     48  27  43 NE5       30.15R
HIBBING        MOSUNNY   52  30  43 CALM      30.14S
EVELETH        SUNNY     53  26  35 SW3       30.15S
DULUTH HARBOR  SUNNY     43  36  75 CALM      30.18R
TWO HARBORS    SUNNY     55  37  50 CALM      30.14R
SILVER BAY     MOSUNNY   54  34  47 SE6       30.13S
GRAND MARAIS     N/A     40  34  79 E5        30.18R
G MARAIS ARPRT CLOUDY    48  23  37 NW5       30.14S
$$
MNZ029>031-032-039>041-046>048-054>057-064-281800-
   West Central Minnesota

CITY           SKY/WX    TMP DP  RH WIND       PRES   REMARKS
FERGUS FALLS   MOSUNNY   46  37  71 W6        30.20R
WHEATON        CLOUDY    41  37  87 CALM      30.20R
MORRIS         MOSUNNY   55  37  50 NE3       30.15S
ALEXANDRIA     MOSUNNY   56  36  47 VRB3      30.16R
ELBOW LAKE     FAIR      48  39  69 CALM      30.17R
WADENA         SUNNY     54  36  50 CALM      30.15S
GLENWOOD       MOSUNNY   57  37  47 CALM      30.16S
APPLETON       PTSUNNY   55  37  50 CALM      30.16S
BENSON         CLOUDY    59  30  33 CALM      30.18R
ORTONVILLE     MOSUNNY   46  36  66 W3        30.17S
MADISON        MOSUNNY   55  39  54 CALM      30.16S
WILLMAR        FAIR      57  37  47 NE6       30.17R
$$
MNZ033>034-036-042>043-049>051-058-059-281800-
   Central Minnesota

CITY           SKY/WX    TMP DP  RH WIND       PRES   REMARKS
ST CLOUD       SUNNY     57  32  38 VRB5      30.15S
SAUK CENTRE    FAIR      55  36  49 CALM      30.16S
PAYNESVILLE    MOSUNNY   56  34  44 CALM      30.16S
AITKIN         SUNNY     57  32  38 SW6       30.14R
PINE RIVER     MOSUNNY   54  36  50 CALM      30.18R
BRAINERD       SUNNY     55  35  47 SW6       30.16R
STAPLES        SUNNY     55  36  47 CALM      30.15R
LONG PRAIRIE   FAIR      54  36  50 CALM      30.16S
LITTLE FALLS   SUNNY     54  32  43 S3        30.16S
LITCHFIELD     CLOUDY    57  37  47 N6        30.16S
BUFFALO        SUNNY     55  32  41 N6        30.17S
MAPLE LAKE     SUNNY     56  37  47 NE3       30.17S
HUTCHINSON     SUNNY     57  39  51 NE8       30.16S
$$
MNZ037-044-045-052-053-281800-
   East Central Minnesota

CITY           SKY/WX    TMP DP  RH WIND       PRES   REMARKS
PRINCETON      SUNNY     57  30  35 NE3       30.16S
MORA           SUNNY     54  30  40 CALM      30.18R
CAMBRIDGE      SUNNY     57  36  44 N3        30.15R
RUSH CITY      SUNNY     54  33  45 CALM      30.17R
MOOSE LAKE     SUNNY     55  32  41 CALM      30.15R
CLOQUET        SUNNY     54  28  37 CALM      30.15R
MCGREGOR       CLOUDY    54  34  47 CALM      30.16R
$$
MNZ071>073-080-081-089-090-097-098-281800-
   Southwest Minnesota

CITY           SKY/WX    TMP DP  RH WIND       PRES   REMARKS
MONTEVIDEO     MOSUNNY   59  39  47 SE3       30.17S
GRANITE FALLS  SUNNY     59  39  46 E6        30.17R
CANBY          MOSUNNY   56  38  51 CALM      30.17S HAZE
MARSHALL       SUNNY     55  37  50 E8        30.16R
REDWOOD FALLS  SUNNY     57  36  45 E8        30.15R
OLIVIA         SUNNY     55  36  47 SE7       30.15R
PIPESTONE      MOSUNNY   55  34  44 SE6       30.14R
WINDOM         SUNNY     55  37  50 CALM      30.15R
WORTHINGTON    SUNNY     52  39  61 VRB6      30.16R
JACKSON          N/A     54  36  50 E7        30.15R
TRACY          SUNNY     56  39  52 SE5       30.15S
SLAYTON        SUNNY     54  38  55 E6        30.15S
$$
MNZ065>067-074>077-082>085-091>093-281800-
   South Central Minnesota

CITY           SKY/WX    TMP DP  RH WIND       PRES   REMARKS
MANKATO        SUNNY     54  37  52 VRB5      30.16R
NEW ULM        SUNNY     55  36  47 CALM      30.15S
ST JAMES       SUNNY     54  39  58 CALM      30.16S
FAIRMONT       SUNNY     51  39  63 CALM      30.16R
GLENCOE        SUNNY     56  40  54 CALM      30.15S
FARIBAULT      SUNNY     55  39  54 NW5       30.15F
OWATONNA       SUNNY     54  37  54 E5        30.16R
WASECA         SUNNY     52  37  58 E5        30.17R
ALBERT LEA     SUNNY     50  37  62 E8        30.15R
$$
MNZ078>079-086>088-094>096-281800-
   Southeast Minnesota

CITY           SKY/WX    TMP DP  RH WIND       PRES   REMARKS
ROCHESTER      SUNNY     50  40  68 NE7       30.16R
RED WING       SUNNY     48  41  76 S3        30.16S
STANTON        SUNNY     54  41  60 CALM      30.15S
DODGE CENTER   SUNNY     50  39  66 NE7       30.15S
WINONA         SUNNY     48  41  76 CALM      30.18S
AUSTIN         SUNNY     50  39  66 E8        30.15R
PRESTON        SUNNY     47  37  65 E6        30.16R
$$
ABBREVIATIONS USED IN REMARKS
   TC - TEMPERATURES IN CELSIUS
  WCI - WIND CHILL INDEX
   HX - HEAT INDEX
  VSB - VISIBILITY
$$




USA.gov is the U.S. government's official web portal to all federal, state and local government web resources and services.